Portada
METAR-TAF:

METAR-TAF

Aeroports :

South Alabama Regional Airport

Andalusia, Alabama, Estats Units d'Amèrica

latitud: 31-18-00N, longitud: 086-23-00W, altitud: 94 m

Observació

L'informe es va fer fa 38 minuts, a les 12:56 UTC
Vent 4 kt amb direcció variable
Temperatura 23°C
Humitat 83%
Pressió 1019 hPa
Visibilitat: 16.1 km
Cel ennuvolat a una alçada de 1000 ft
Cel cobert a una alçada de 4400 ft

METAR: K79J 261256Z AUTO VRB04KT 10SM BKN010 OVC044 23/20 A3009 RMK AO2 CIG 008V013 SLP184 T02280200

Hora: 07:34 (13:34 UTC)


TAF: manca

Observacions i pronòstics meteorològics de més de 4000 aeroports (METAR i TAF).

Les estacions disponibles són els punts grocs i vermells al mapa.

Posi el ratolí al punt desitjat per veure el nom de l'estació.

Feu clic per veure les observacions i els pronòstics meteorològics.

Per canviar el mapa: feu clic els botons verds amb una creu de color negre per apropar; al botó verd amb un guió per allunyar la imatge; o en les fletxes verdes per a mapes adjacents.


METAR-TAF: